This is the latest recevied weather packets stored in our database for station/object IW3HBX-3. If no packets are shown the sender has not sent any weather packets the latest 10 day(s).
| Time | Temp. | Humidity | Pressure | Rain* | Wind** | Luminosity | Snow |
|---|---|---|---|---|---|---|---|
| 1777706408 | 18.33° C | 49% | 1026.4 hPa | 0 mm | - | 401 W/m² | - |
| 1777706108 | 17.78° C | 49% | 1026.6 hPa | 0 mm | - | 385 W/m² | - |
| 1777705833 | 17.22° C | 51% | 1026.6 hPa | 0 mm | - | 355 W/m² | - |
| 1777705809 | 17.22° C | 50% | 1026.5 hPa | 0 mm | - | 367 W/m² | - |
| 1777705509 | 17.22° C | 51% | 1026.6 hPa | 0 mm | - | 355 W/m² | - |
| 1777705209 | 17.78° C | 51% | 1026.6 hPa | 0 mm | - | 341 W/m² | - |
| 1777704910 | 17.22° C | 52% | 1026.5 hPa | 0 mm | - | 324 W/m² | - |
| 1777704610 | 16.67° C | 53% | 1026.6 hPa | 0 mm | - | 306 W/m² | - |
| 1777704310 | 16.11° C | 55% | 1026.5 hPa | 0 mm | - | 288 W/m² | - |
| 1777704010 | 15.56° C | 56% | 1026.6 hPa | 0 mm | - | 274 W/m² | - |
| 1777703710 | 15.56° C | 56% | 1026.5 hPa | 0 mm | - | 257 W/m² | - |
| 1777703411 | 15° C | 55% | 1026.6 hPa | 0 mm | - | 241 W/m² | - |
| 1777703111 | 15° C | 55% | 1026.6 hPa | 0 mm | - | 224 W/m² | - |
| 1777702811 | 14.44° C | 58% | 1026.6 hPa | 0 mm | - | 208 W/m² | - |
| 1777702511 | 13.89° C | 60% | 1026.6 hPa | 0 mm | - | 195 W/m² | - |
| 1777702212 | 13.89° C | 60% | 1026.6 hPa | 0 mm | - | 179 W/m² | - |
| 1777701912 | 13.89° C | 61% | 1026.7 hPa | 0 mm | - | 165 W/m² | - |
| 1777701612 | 13.33° C | 61% | 1026.7 hPa | 0 mm | - | 150 W/m² | - |
| 1777701312 | 12.78° C | 62% | 1026.7 hPa | 0 mm | - | 136 W/m² | - |
| 1777701012 | 12.78° C | 62% | 1026.7 hPa | 0 mm | - | 125 W/m² | - |
| 1777700713 | 12.78° C | 62% | 1026.7 hPa | 0 mm | - | 112 W/m² | - |
| 1777700413 | 12.22° C | 62% | 1026.6 hPa | 0 mm | - | 100 W/m² | - |
| 1777700113 | 11.67° C | 65% | 1026.7 hPa | 0 mm | - | 89 W/m² | - |
| 1777699813 | 11.11° C | 66% | 1026.8 hPa | 0 mm | - | 80 W/m² | - |
| 1777699514 | 11.67° C | 65% | 1026.8 hPa | 0 mm | - | 73 W/m² | - |
* Rain latest hour (hover to see other rain measurements)
** Current wind speed in m/s (hover to see current wind gust speed)